Starlink 1371

operational
NORAD ID: 45542 Int'l Des: 2020-025 Owner: SPXS Country: US Constellation: starlink
LEOCIRCULARSTARLINK_TYPE

关于 Starlink 1371

正在加载描述...

实时位置

正在加载3D地球...

即将过境

高度历史

Altitude vs Time

uPlot chart will show altitude changes over time

两行轨道根数

1 45542U 20025M 25304.26581599 .00001803 00000-0 13987-3 0 9991
2 45542 53.0556 327.6237 0001511 78.5763 281.5396 15.06404936305583
Epoch: Oct 31, 2025 • Age: 6 hours

当前状态

高度 549.6 km
速度 7.59 km/s
星下点 -7.21°S, 67.91°W
发射日期 Apr 22, 2020
运行时间 5.5 years
类型 internet

技术详情

分类 Payload
质量 260.00 kg
干质量 248.00 kg
总质量 260.00 kg
长度 0.20 m
直径 2.80 m
跨度 9.00 m
形状 Box + pan
制造商 SPXS
平台类型 Starlink
阶段状态 In Orbit
所有者/国家 SPXS/US

大型星座

Loading constellations...